Preston, Minnesota, United States (55965)
Lat: 43.67N, Lon: 92.08W
Wx Zone: MNZ095
Local Info
Past Weather Observations for Monday, August 25, 2014

NOTE: This archive is for the closest National Weather Service station to Preston. Information may differ from the station used for current weather conditions.

Click here for Long-term Archive

Time Weather Temperature Dewpoint Humidity Pressure Winds Precip Visibility
23:56
Mostly Cloudy
64°F / 18°C 63°F / 17°C 94% 30.09 in
(1019 mb)
Calm - 10SM
23:36
Partly Cloudy
64°F / 18°C 63°F / 17°C 94% 30.09 in
(1019 mb)
Calm - 10SM
23:16
Partly Cloudy
64°F / 18°C 63°F / 17°C 94% 30.09 in
(1019 mb)
Calm - 10SM
22:56
Partly Cloudy
66°F / 19°C 63°F / 17°C 88% 30.06 in
(1018 mb)
Calm - 10SM
22:36
Mostly Cloudy
Thunder Storms
66°F / 19°C 63°F / 17°C 88% 30.06 in
(1018 mb)
Calm - 10SM
22:16
Mostly Cloudy
66°F / 19°C 63°F / 17°C 88% 30.06 in
(1018 mb)
Calm - 10SM
21:56
Partly Cloudy
66°F / 19°C 63°F / 17°C 88% 30.06 in
(1018 mb)
NW 3.5 mph
(NW 6 kph)
- 10SM
21:36
Partly Cloudy
66°F / 19°C 63°F / 17°C 88% 30.06 in
(1018 mb)
Calm - 10SM
21:16
Partly Cloudy
68°F / 20°C 64°F / 18°C 88% 30.04 in
(1017 mb)
Calm - 10SM
20:55
Mostly Cloudy
68°F / 20°C 66°F / 19°C 94% 30.04 in
(1017 mb)
Calm - 10SM
20:36
Partly Cloudy
68°F / 20°C 66°F / 19°C 94% 30.04 in
(1017 mb)
Calm - 10SM
20:16
Clear
70°F / 21°C 66°F / 19°C 88% 30.04 in
(1017 mb)
Calm - 10SM
19:56
Partly Cloudy
70°F / 21°C 66°F / 19°C 88% 30.04 in
(1017 mb)
Calm - 10SM
19:36
Mostly Cloudy
70°F / 21°C 68°F / 20°C 94% 30.04 in
(1017 mb)
Calm - 10SM
19:15
Mostly Cloudy
72°F / 22°C 68°F / 20°C 88% 30.01 in
(1016 mb)
Calm - 10SM
18:56
Mostly Cloudy
72°F / 22°C 70°F / 21°C 94% 30.04 in
(1017 mb)
Calm - 10SM
18:36
Overcast
72°F / 22°C 70°F / 21°C 94% 30.04 in
(1017 mb)
Calm - 10SM
18:15
Overcast
73°F / 23°C 70°F / 21°C 89% 30.01 in
(1016 mb)
Calm - 10SM
17:56
Mostly Cloudy
75°F / 24°C 70°F / 21°C 83% 30.01 in
(1016 mb)
NW 3.5 mph
(NW 6 kph)
- 10SM
17:35
Partly Cloudy
77°F / 25°C 72°F / 22°C 83% 30.01 in
(1016 mb)
Calm - 10SM
17:16
Partly Cloudy
79°F / 26°C 72°F / 22°C 79% 30.01 in
(1016 mb)
Calm - 10SM
16:55
Partly Cloudy
81°F / 27°C 73°F / 23°C 79% 30.01 in
(1016 mb)
Calm - 10SM
16:36
Clear
81°F / 27°C 73°F / 23°C 79% 30.01 in
(1016 mb)
Calm - 10SM
16:15
Clear
82°F / 28°C 72°F / 22°C 70% 30.01 in
(1016 mb)
Calm - 10SM
15:55
Clear
82°F / 28°C 72°F / 22°C 70% 29.98 in
(1015 mb)
Calm - 10SM
15:36
Clear
82°F / 28°C 72°F / 22°C 70% 29.98 in
(1015 mb)
Calm - 10SM
15:15
Clear
82°F / 28°C 70°F / 21°C 66% 29.98 in
(1015 mb)
Calm - 10SM
14:56
Clear
82°F / 28°C 70°F / 21°C 66% 29.98 in
(1015 mb)
Calm - 10SM
14:36
Clear
82°F / 28°C 72°F / 22°C 70% 30.01 in
(1016 mb)
WNW 3.5 mph
(WNW 6 kph)
- 10SM
14:16
Clear
82°F / 28°C 73°F / 23°C 74% 30.01 in
(1016 mb)
W 4.6 mph
(W 7 kph)
- 10SM
13:55
Clear
82°F / 28°C 73°F / 23°C 74% 30.01 in
(1016 mb)
NW 3.5 mph
(NW 6 kph)
- 10SM
13:36
Clear
82°F / 28°C 73°F / 23°C 74% 30.01 in
(1016 mb)
NW 3.5 mph
(NW 6 kph)
- 10SM
13:16
Clear
82°F / 28°C 72°F / 22°C 70% 30.01 in
(1016 mb)
W 4.6 mph
(W 7 kph)
- 10SM
12:56
Clear
82°F / 28°C 72°F / 22°C 70% 30.01 in
(1016 mb)
W 3.5 mph
(W 6 kph)
- 10SM
12:36
Clear
82°F / 28°C 72°F / 22°C 70% 30.01 in
(1016 mb)
Calm - 10SM
12:16
Clear
81°F / 27°C 73°F / 23°C 79% 30.01 in
(1016 mb)
WNW 3.5 mph
(WNW 6 kph)
- 10SM
11:55
Clear
81°F / 27°C 73°F / 23°C 79% 30.01 in
(1016 mb)
Calm - 10SM
11:36
Clear
81°F / 27°C 73°F / 23°C 79% 30.01 in
(1016 mb)
Calm - 10SM
11:16
Clear
81°F / 27°C 73°F / 23°C 79% 30.01 in
(1016 mb)
Calm - 10SM
10:56
Clear
79°F / 26°C 73°F / 23°C 84% 30.01 in
(1016 mb)
Calm - 10SM
02:56
Partly Cloudy
68°F / 20°C 66°F / 19°C 94% 29.92 in
(1013 mb)
Calm - 10SM
01:54
Mostly Cloudy
Thunder Storms
68°F / 20°C 66°F / 19°C 94% 29.95 in
(1014 mb)
Calm 0.06 in
(1.52 mm)
7SM
01:36
Mostly Cloudy
Thunder Storms
68°F / 20°C 68°F / 20°C 100% 29.92 in
(1013 mb)
Calm 0.05 in
(1.27 mm)
10SM
01:16
Overcast
Thunder Storms
68°F / 20°C 68°F / 20°C 100% 29.98 in
(1015 mb)
Calm 0.05 in
(1.27 mm)
7SM
00:56
Mostly Cloudy
Thunder Storms
72°F / 22°C 70°F / 21°C 94% 30.01 in
(1016 mb)
SSW 10.4 mph
(SSW 17 kph)
0.12 in
(3.05 mm)
3SM
00:36
Partly Cloudy
73°F / 23°C 72°F / 22°C 94% 29.95 in
(1014 mb)
SW 5.8 mph
(SW 9 kph)
0.01 in
(0.25 mm)
10SM
00:16
Partly Cloudy
Thunder Storms
75°F / 24°C 73°F / 23°C 94% 29.95 in
(1014 mb)
SSW 8.1 mph
(SSW 13 kph)
0.01 in
(0.25 mm)
10SM
Time Weather Temperature Dewpoint Humidity Pressure Winds Precip Visibility


Weather for websites

WeatherForYou.com, LLC is not responsible for any damages or problems caused by this service. Current weather conditions are obtained from the closest station including government and personal stations which may have varying degrees of accuracy. Weather forecasts are derived from the NOAA NDFD. Like all things, this site belongs to Jesus Christ... He just trusts me to maintain it. If you have any questions or comments email webmaster@weatherforyou.com

Copyright © 2014, WeatherForYou.com LLC. All rights reserved.